Location: Proctor
(47.8934°N, 114.3048°W)
Time: 07:15:26
(UTC+00:00)

Vanguard 2 Rocket - Pass Details

Date: 22 June 2024
Orbit: 555 x 3303 km, 32.9° (Epoch: 13 July)

Event Time Altitude Azimuth Distance (km) Brightness Sun altitude
Exits shadow 08:55:57 19° 192° (SSW) 5,323 10.1 -16.6°
Maximum altitude 09:07:02 33° 150° (SSE) 4,614 10.1 -16.0°
Drops below altitude 10° 09:22:16 10° 96° (E) 5,784 11.2 -15.0°
Sets 09:26:56 0° 88° (E) 6,510 11.7 -14.7°
